Temperature
14 15 15 16 13 12 13 14 16 17 17 18 18 18 16 16 17 17 16 16 16 16 16 16 16 16 16 16 16 16 16 16 16 16 16 16 15 15 15 15 15 15 15 15 15 14 14 14 14
14 15 15 14 12 12 13 14 15 16 17 18 18 17 16 15 16 16 15 16 16 16 16 16 16 16 16 16 16 16 16 16 16 16 16 15 15 15 15 15 15 15 15 15 15 15 15 14 14
14 14 14 11 12 12 14 15 15 16 17 17 17 16 16 15 15 15 16 16 16 16 16 16 16 16 15 15 15 15 15 16 16 15 15 15 15 15 15 15 15 15 15 15 15 15 15 14 14
14 14 13 11 12 13 14 15 15 15 17 17 16 14 15 15 15 15 15 15 16 16 15 15 15 15 15 15 15 15 15 15 15 15 15 15 15 15 15 15 15 15 15 15 15 15 14 14 14
13 13 11 11 12 13 13 14 15 14 15 15 15 13 14 14 14 15 15 15 15 15 15 15 15 15 15 15 15 15 15 15 15 15 15 15 15 15 15 15 15 14 14 14 14 14 14 14 14
13 11 10 11 12 13 13 14 15 14 14 15 14 13 13 14 14 14 14 15 15 15 15 15 15 15 15 15 15 15 15 15 15 15 15 15 15 15 15 14 14 14 14 14 14 14 14 14 14
11 9 10 11 12 12 13 14 14 13 13 14 14 13 12 13 13 14 14 14 14 14 14 14 14 14 14 14 14 14 15 14 14 14 14 14 14 14 14 14 14 14 14 14 14 14 13 13 14
12 9 11 11 11 12 13 13 14 13 13 14 14 12 12 13 13 13 13 14 14 14 14 14 14 14 14 14 14 14 14 14 14 14 14 14 14 14 14 14 14 14 14 14 14 13 13 13 13
12 9 9 10 11 12 12 12 13 13 13 13 13 13 13 13 13 13 13 13 13 13 13 13 13 13 13 14 14 14 14 14 14 14 14 14 14 14 13 13 13 13 14 13 13 13 13 13 13
11 8 9 11 11 11 11 11 12 12 12 12 12 12 12 12 13 13 13 13 13 13 13 13 13 13 13 13 13 13 13 13 13 13 13 13 13 13 13 13 13 13 13 13 13 13 13 13 13
9 9 10 10 11 11 11 11 11 11 10 11 11 12 12 12 12 12 12 12 12 12 12 13 13 13 13 13 13 13 13 13 13 13 13 13 13 13 13 13 13 13 13 13 13 13 13 13 13
9 9 10 10 10 10 10 10 10 10 11 12 12 12 11 12 12 12 12 12 12 12 12 12 12 12 12 12 13 13 13 13 12 12 13 13 13 13 13 12 12 12 12 12 12 12 12 12 12
9 9 10 10 10 10 10 10 9 10 11 11 11 11 11 11 11 11 11 11 11 12 12 12 12 12 12 12 12 12 12 12 12 12 12 12 12 12 12 12 12 12 12 12 12 12 12 12 12
9 9 9 9 9 9 9 9 9 10 11 11 11 11 11 11 11 11 11 11 11 11 11 12 11 11 12 12 12 12 12 12 12 12 12 12 12 12 12 12 12 12 11 11 12 12 11 11 11
9 8 8 9 9 9 9 8 8 10 10 10 10 10 10 10 11 11 11 11 11 11 11 11 11 11 11 11 12 12 12 11 11 11 11 11 11 11 11 11 11 11 11 11 11 11 11 11 11
8 7 7 8 9 9 9 8 9 10 10 9 10 10 10 10 10 10 10 11 11 11 11 11 11 11 11 11 11 11 11 11 11 11 11 11 11 11 11 11 11 11 11 11 11 11 11 11 11
7 6 7 8 8 8 8 7 8 9 9 9 9 10 10 10 10 10 10 10 10 10 10 10 10 10 10 10 10 11 11 11 11 11 11 11 11 11 11 11 11 10 10 10 10 10 10 10 10
7 6 7 7 8 8 7 7 8 8 8 8 8 9 9 9 9 10 10 10 10 10 10 10 10 10 10 10 10 10 10 10 10 10 10 10 10 10 10 10 10 10 10 10 10 10 10 10 10
7 7 7 7 8 7 7 7 7 8 7 7 7 8 8 8 9 9 9 9 9 9 10 10 10 10 10 10 10 10 10 10 10 10 10 10 9 9 10 10 10 10 9 9 9 9 9 9 9
7 7 6 6 7 7 6 6 7 7 7 7 7 7 8 8 8 8 9 9 9 9 9 9 9 9 9 9 9 9 9 9 9 9 9 9 9 9 9 9 9 9 9 9 9 9 9 9 8
7 6 6 6 6 7 6 6 6 7 7 7 7 7 7 7 7 8 8 8 8 8 8 9 9 9 9 9 9 9 9 9 9 8 9 9 9 9 9 9 9 9 9 9 8 8 8 8 8
6 7 7 7 6 5 6 5 6 6 6 6 6 6 7 7 7 7 7 8 8 8 8 8 8 8 8 8 8 8 8 8 8 8 8 8 8 8 8 8 8 8 8 8 8 8 8 8 8
6 6 6 6 5 4 5 5 5 5 5 5 5 6 6 7 7 7 7 7 7 8 8 8 8 8 8 8 8 8 8 8 8 8 8 8 8 8 8 8 7 7 7 7 7 7 7 7 7
6 6 5 4 3 4 5 4 5 4 5 5 5 5 6 6 6 6 6 7 7 7 7 7 7 7 7 7 7 7 7 7 7 7 7 7 7 7 7 7 7 7 7 7 7 7 7 7 7
5 4 4 4 3 4 5 5 5 5 5 5 5 5 5 6 6 6 6 6 7 7 7 7 7 7 7 7 7 7 6 6 6 6 6 6 6 6 6 6 6 6 7 7 7 6 7 7 6
5 4 4 5 4 4 4 4 5 5 5 5 5 5 5 5 5 6 6 6 6 6 6 6 6 6 6 6 6 6 6 6 6 6 6 6 6 6 6 6 6 6 6 6 6 6 6 6 6
5 3 4 3 3 3 3 4 4 5 4 4 4 4 4 4 5 5 5 5 5 6 6 6 6 6 6 6 6 5 5 5 5 5 5 5 5 5 5 5 6 6 6 6 6 6 6 6 6
4 4 3 3 4 4 4 4 4 4 4 3 3 3 4 4 4 4 5 5 5 5 5 5 5 5 5 5 5 5 5 5 5 4 4 4 5 5 5 5 5 5 5 5 5 5 5 5 5
4 3 3 2 2 4 4 4 4 4 4 3 3 3 3 3 4 4 4 4 5 5 4 5 5 5 5 5 4 4 4 4 4 4 4 4 4 4 4 4 4 5 5 5 5 5 5 5 4
3 3 2 3 2 2 2 4 4 3 3 3 3 3 3 3 3 3 3 3 4 4 4 4 4 4 4 4 4 4 4 4 4 4 3 3 3 4 4 4 4 4 4 4 4 4 4 4 4
Wind_Speed
13 10 2 4 4 3 4 5 3 2 1 1 2 5 7 4 3 4 1 4 5 7 8 10 10 12 12 12 13 13 13 13 12 12 12 12 12 12 12 13 13 13 12 13 13 14 14 14 14
8 4 5 4 4 3 5 5 5 4 4 2 2 4 5 3 2 4 2 3 6 7 8 9 11 11 12 12 13 13 13 13 12 12 12 12 12 12 12 12 12 12 12 13 13 13 13 13 13
6 2 4 3 4 6 5 3 5 3 1 0 2 3 3 3 3 3 2 5 6 6 8 10 12 11 11 12 12 12 12 12 12 11 11 11 11 11 11 11 12 12 12 13 13 13 13 12 12
3 4 4 2 5 5 5 3 2 1 2 2 3 3 2 2 2 2 4 7 7 6 7 9 11 11 10 11 11 11 11 11 11 11 11 11 11 11 11 11 11 11 12 12 13 12 12 11 11
3 4 3 2 5 4 3 3 1 1 1 1 2 3 1 3 3 6 6 7 7 6 7 9 11 10 9 10 11 10 10 10 11 11 11 11 11 11 10 11 11 11 11 12 12 11 11 11 10
3 3 3 4 5 4 4 4 1 0 2 1 2 3 1 1 5 5 6 7 6 6 7 8 9 9 9 9 10 9 9 9 10 10 10 10 10 10 10 10 11 11 11 11 11 11 10 10 10
4 3 4 4 3 4 4 2 1 2 2 2 2 4 1 1 2 4 6 7 6 6 6 6 7 8 8 8 9 9 9 9 9 9 10 10 10 10 10 9 10 11 10 10 10 9 9 9 9
4 3 2 3 4 4 2 2 1 1 3 1 3 5 3 2 1 4 5 6 5 4 5 5 5 6 6 6 8 8 8 8 8 9 9 9 10 10 9 9 10 10 9 9 9 8 8 8 8
3 3 3 4 4 3 2 2 4 3 0 1 1 2 3 4 5 6 5 4 3 3 3 4 3 4 4 5 6 7 8 7 8 8 8 8 8 9 9 9 10 9 9 8 8 7 6 6 6
3 3 5 2 2 2 2 2 3 2 1 1 2 2 3 5 6 6 4 3 2 1 1 3 3 2 3 4 5 5 5 6 6 6 6 6 6 7 7 9 9 9 8 7 6 5 5 4 4
3 5 3 2 2 2 3 4 3 1 2 3 3 2 2 4 4 5 4 3 2 1 1 2 3 2 2 2 4 3 3 3 4 5 5 6 6 5 5 6 7 6 6 4 4 3 3 3 4
1 2 3 2 2 2 3 3 4 3 6 4 3 4 4 4 4 4 4 3 2 1 1 1 2 2 2 2 3 3 3 3 3 4 5 5 4 3 4 3 4 4 4 3 3 3 2 2 3
2 2 2 3 3 3 2 3 3 6 6 3 2 4 4 4 3 3 3 3 2 1 1 1 2 3 2 2 3 3 3 3 3 4 4 4 4 3 3 3 3 3 4 3 3 3 2 1 1
1 1 3 3 3 2 2 5 3 7 3 2 2 3 4 5 4 3 2 2 2 2 2 2 2 3 3 3 3 3 3 3 3 3 3 4 4 4 4 3 3 3 3 4 4 3 2 1 1
1 2 5 3 3 2 0 6 5 6 3 3 3 4 4 4 4 5 4 4 3 2 2 2 3 2 3 4 3 3 3 4 3 3 4 4 5 5 4 3 2 3 4 4 3 3 2 1 1
2 2 3 3 2 2 2 7 5 3 3 4 3 4 3 4 4 4 4 3 2 2 2 2 2 2 3 3 3 2 3 3 3 3 4 4 5 5 4 3 2 3 3 3 2 2 2 2 1
2 1 3 4 2 1 3 7 5 3 2 4 4 4 3 3 2 3 3 3 3 2 2 2 2 2 2 3 3 2 3 3 3 3 4 4 4 5 4 4 3 3 3 2 2 2 2 2 2
4 3 3 5 3 1 4 8 8 4 3 5 4 3 2 2 4 3 2 2 2 2 2 2 2 2 2 2 2 2 2 2 2 3 3 4 4 5 4 4 3 4 2 2 2 2 2 2 2
3 4 6 7 5 4 6 9 10 6 4 5 4 3 3 4 4 2 2 2 1 1 2 3 2 3 2 2 3 3 3 3 3 3 4 4 4 4 4 3 3 3 3 3 3 2 2 1 1
3 3 4 5 3 3 5 9 8 4 4 5 4 4 4 4 4 3 2 1 1 1 2 2 3 3 3 3 3 3 3 3 3 3 3 4 5 5 4 4 4 4 3 3 2 2 1 1 1
2 3 3 4 5 3 3 7 4 2 2 2 3 4 4 4 4 4 3 2 2 2 3 3 3 4 4 4 2 2 1 1 2 2 3 3 4 4 4 3 3 3 3 4 4 4 4 3 2
3 3 3 2 2 3 1 4 6 4 4 4 5 4 3 4 4 4 4 3 4 4 3 3 3 3 3 4 4 5 3 4 4 3 3 2 3 3 3 4 3 3 3 4 4 3 3 4 3
3 2 2 2 1 2 1 2 7 3 5 7 6 5 4 3 3 5 5 5 4 3 3 3 3 2 2 3 5 5 4 4 2 2 3 3 3 3 3 3 3 4 4 4 4 3 3 3 3
1 3 4 4 4 2 4 4 7 3 5 6 6 6 4 4 3 3 3 3 2 2 2 2 2 2 2 3 4 4 5 4 3 4 4 3 3 3 3 4 4 4 4 4 4 4 4 3 3
3 4 4 5 3 5 2 3 7 5 4 4 6 6 4 3 2 2 2 2 2 2 2 2 2 3 3 3 4 4 5 5 6 5 5 4 3 3 4 4 4 4 4 4 4 4 4 3 4
1 3 4 3 4 5 3 5 6 4 4 3 3 3 3 3 3 3 2 2 2 2 2 2 3 3 3 3 4 4 5 4 4 5 5 5 4 4 4 4 4 4 4 4 3 3 4 3 4
1 2 3 3 1 3 5 6 7 3 5 5 5 5 6 5 5 5 4 3 3 2 2 2 2 2 2 3 3 3 4 4 4 4 4 4 4 3 3 4 4 4 3 3 3 3 4 3 4
2 3 3 3 1 4 6 5 4 5 6 5 5 6 6 6 6 5 4 4 3 2 2 1 1 1 2 2 3 3 3 4 4 4 4 4 4 4 3 3 4 4 4 3 3 3 3 3 4
1 1 2 2 3 3 4 6 3 3 3 3 4 4 5 5 5 5 5 4 3 3 2 1 1 1 1 2 2 2 2 2 2 3 4 4 4 4 4 4 4 4 4 4 3 3 3 3 4
2 3 3 2 3 3 3 7 3 3 3 3 5 6 6 6 6 5 4 4 3 3 3 2 2 2 2 1 1 1 1 1 2 3 3 3 3 4 4 4 4 4 3 4 4 4 3 3 4
Wind_Direction
335 338 30 53 62 67 224 240 214 211 221 216 113 109 115 116 134 153 141 127 119 138 139 139 138 139 136 133 130 128 126 124 122 120 118 116 114 112 113 112 111 114 115 115 113 112 110 107 104
335 348 50 64 116 179 243 235 213 217 202 188 69 82 89 92 86 108 98 123 125 132 137 139 135 129 134 133 132 131 130 127 125 124 123 121 118 116 116 115 114 114 116 117 117 116 114 111 107
332 27 82 95 160 192 214 227 210 239 312 108 71 59 111 125 125 143 162 129 118 123 129 135 132 130 129 130 131 132 133 132 130 129 128 126 124 120 119 120 118 116 117 120 120 118 116 114 109
35 46 61 113 212 222 210 235 223 254 344 15 102 71 67 25 154 151 128 117 118 120 119 127 128 130 129 133 131 129 133 136 137 135 132 130 128 125 124 125 124 121 120 121 121 120 118 116 112
63 83 93 216 232 246 252 265 242 197 258 342 97 116 78 348 90 116 119 111 112 121 120 129 127 127 125 132 135 135 133 136 141 140 137 134 134 131 129 130 130 127 125 123 123 123 121 117 113
58 80 130 216 232 251 276 280 274 247 262 305 97 131 158 43 84 104 113 111 108 123 124 131 133 130 128 127 132 137 137 136 141 145 141 138 135 135 134 136 135 132 129 127 124 126 124 119 114
111 115 177 201 223 247 257 279 199 202 248 247 166 130 137 35 84 107 109 107 101 101 112 114 126 131 133 129 133 134 139 138 137 140 144 143 140 138 136 138 138 138 136 132 129 125 128 125 119
129 117 199 212 215 236 268 309 325 205 240 268 122 139 181 223 133 103 97 98 99 93 105 100 110 120 124 125 135 135 134 137 136 132 134 143 144 144 142 140 138 139 141 141 137 132 131 129 123
99 101 211 216 210 237 320 345 330 334 115 22 69 165 183 147 110 93 81 74 82 81 107 117 106 115 123 126 135 137 137 135 134 135 133 134 141 143 145 142 139 136 139 143 144 141 136 134 126
105 171 215 228 222 258 311 317 311 356 1 351 24 37 103 117 115 113 109 104 99 79 136 133 135 115 127 133 137 132 132 136 135 136 136 132 136 142 147 146 143 140 136 137 138 140 139 132 125
157 192 216 267 296 296 307 315 315 225 267 218 185 175 130 123 124 133 142 147 161 169 194 162 161 144 127 128 139 131 133 135 139 139 139 136 131 138 142 143 142 139 136 131 127 123 124 129 137
186 234 221 251 299 312 300 306 312 251 240 230 205 181 160 147 153 161 159 165 172 165 251 182 162 153 143 146 153 140 140 143 147 154 148 143 136 138 151 151 150 146 148 142 137 138 138 130 147
232 253 280 279 299 294 293 272 269 265 260 260 192 157 173 174 180 181 171 166 156 173 249 212 175 168 162 150 158 148 149 153 153 149 153 150 152 157 154 156 163 159 160 161 162 153 151 153 160
221 283 298 291 290 293 261 278 258 260 263 258 213 184 188 185 179 177 169 169 182 194 231 195 186 177 156 162 161 159 160 158 151 150 156 153 157 163 160 157 164 167 177 179 175 168 169 185 181
25 344 318 279 239 232 233 292 239 251 261 247 233 210 205 201 193 191 191 190 187 190 224 192 178 175 164 164 168 160 162 158 161 169 167 155 153 157 160 157 172 187 180 176 166 158 152 174 197
29 25 306 286 218 209 172 267 270 264 244 244 241 218 214 214 206 201 198 194 187 186 211 192 186 172 173 172 173 163 163 162 167 172 170 162 158 160 159 164 181 179 166 166 175 171 169 201 211
25 267 259 289 253 200 206 258 279 288 254 262 260 238 234 230 239 225 208 196 192 192 206 187 173 170 184 183 177 170 170 175 179 177 170 168 164 163 164 172 178 164 163 172 185 173 176 202 233
227 237 253 262 274 274 263 266 281 272 256 257 265 266 265 255 248 241 223 219 214 205 203 189 168 176 185 178 170 169 170 179 177 182 181 173 173 165 162 174 173 166 164 174 181 184 190 200 222
222 236 263 271 284 281 258 274 280 270 255 257 266 269 270 272 269 252 215 212 224 203 187 197 176 194 177 176 185 192 195 187 182 191 184 180 179 175 170 182 183 179 179 186 186 179 189 219 162
230 255 277 293 307 296 284 284 279 260 240 241 247 259 263 274 286 277 249 198 214 238 224 201 188 201 193 192 195 197 196 189 186 196 195 192 187 188 190 190 191 189 185 187 190 177 191 225 191
265 226 245 273 323 328 323 306 292 298 262 269 268 263 260 257 264 270 263 234 204 229 239 236 212 202 197 189 168 161 156 177 190 198 205 207 199 203 206 201 189 194 191 201 206 199 194 214 240
267 242 242 276 336 304 359 294 282 285 300 297 298 303 285 272 254 249 245 239 226 227 228 230 219 206 201 186 173 175 196 206 212 206 208 217 216 214 211 204 198 197 204 209 216 214 213 198 224
233 271 286 291 173 316 286 233 281 304 290 290 293 297 298 285 246 240 243 238 237 225 219 222 209 205 204 193 187 185 203 224 208 190 196 213 224 222 215 210 207 209 215 218 217 216 222 217 220
240 22 30 45 70 300 241 196 279 264 266 295 304 303 304 300 272 258 260 252 248 240 231 223 197 206 195 185 186 188 201 213 206 206 206 213 223 222 218 217 216 218 221 223 221 212 212 224 224
61 71 24 359 2 258 262 218 256 267 280 277 294 304 300 300 308 305 304 291 276 257 249 237 208 216 205 191 196 199 206 208 212 212 213 213 219 222 216 220 221 222 221 219 215 212 214 221 224
190 136 156 214 243 283 300 242 258 279 310 313 312 332 349 339 331 319 303 284 282 273 262 243 227 230 222 204 206 205 211 209 216 212 216 217 223 223 217 216 219 221 217 216 208 213 218 220 217
137 175 175 143 248 274 275 285 299 308 342 355 358 359 349 338 331 326 325 321 300 283 266 250 244 244 236 223 215 215 211 210 212 210 209 218 227 227 214 219 218 216 209 209 210 215 217 217 217
141 147 105 133 207 269 286 273 267 299 312 334 339 337 336 340 338 329 324 323 315 303 292 287 257 250 244 230 224 229 222 220 218 210 210 213 217 220 213 219 217 216 213 215 214 215 218 215 224
105 103 130 147 175 197 272 273 246 259 276 303 309 317 329 329 323 320 322 329 334 344 341 329 313 295 269 247 237 228 235 235 230 221 218 216 214 204 207 215 216 215 214 212 211 218 216 217 222
190 185 156 180 244 215 239 271 294 295 289 312 318 327 329 326 323 323 324 334 347 349 344 343 341 314 274 253 228 223 241 228 213 217 221 212 212 210 204 211 216 215 214 212 208 218 224 222 220
Height
1501 1501 1502 1504 1508 1515 1514 1506 1499 1497 1497 1496 1495 1494 1496 1500 1504 1510 1506 1505 1506 1507 1508 1510 1512 1513 1514 1515 1515 1516 1517 1518 1520 1520 1521 1522 1523 1523 1524 1524 1525 1525 1525 1526 1526 1526 1527 1527 1527
1500 1501 1503 1504 1511 1519 1513 1502 1498 1495 1494 1494 1495 1495 1496 1499 1501 1502 1503 1504 1506 1507 1508 1509 1511 1512 1513 1514 1515 1516 1517 1518 1519 1520 1521 1522 1523 1524 1524 1524 1525 1525 1526 1526 1526 1527 1527 1527 1528
1500 1501 1503 1505 1511 1513 1506 1498 1496 1493 1493 1494 1495 1496 1498 1500 1501 1501 1502 1503 1505 1506 1507 1508 1510 1511 1512 1514 1515 1515 1516 1518 1519 1520 1521 1522 1523 1523 1524 1525 1525 1525 1526 1526 1526 1527 1527 1528 1528
1500 1501 1503 1508 1508 1504 1499 1496 1494 1493 1493 1494 1494 1497 1499 1501 1501 1501 1502 1503 1504 1506 1507 1508 1509 1511 1512 1513 1514 1515 1516 1517 1518 1520 1521 1521 1522 1523 1524 1525 1525 1526 1526 1526 1527 1527 1528 1528 1528
1499 1500 1506 1509 1505 1500 1496 1494 1494 1494 1494 1494 1494 1497 1499 1500 1500 1501 1501 1502 1504 1505 1506 1508 1509 1510 1511 1513 1514 1515 1515 1516 1518 1519 1520 1521 1522 1523 1523 1524 1525 1525 1526 1526 1527 1527 1528 1528 1528
1499 1500 1509 1510 1503 1498 1495 1494 1494 1494 1494 1494 1494 1496 1498 1499 1499 1500 1501 1502 1503 1504 1505 1507 1508 1509 1510 1511 1513 1514 1515 1516 1517 1518 1519 1521 1521 1522 1523 1524 1524 1525 1526 1526 1527 1527 1528 1528 1528
1500 1503 1506 1505 1502 1499 1495 1494 1494 1493 1493 1493 1493 1495 1496 1498 1499 1500 1501 1502 1503 1504 1505 1506 1507 1508 1509 1510 1512 1513 1514 1515 1516 1517 1518 1520 1521 1521 1522 1523 1524 1525 1526 1526 1527 1527 1527 1527 1528
1499 1503 1504 1503 1501 1498 1494 1493 1493 1493 1492 1493 1493 1494 1495 1496 1497 1499 1500 1501 1502 1503 1503 1504 1506 1507 1508 1509 1511 1512 1513 1514 1515 1516 1517 1519 1520 1521 1521 1522 1523 1524 1525 1525 1526 1527 1527 1527 1527
1498 1506 1506 1502 1499 1496 1493 1493 1493 1492 1491 1491 1492 1492 1493 1494 1496 1498 1499 1500 1501 1501 1502 1503 1504 1506 1506 1508 1509 1510 1512 1513 1514 1515 1516 1517 1519 1520 1520 1521 1522 1523 1524 1525 1525 1526 1526 1526 1526
1498 1505 1501 1497 1496 1495 1494 1493 1492 1492 1491 1490 1491 1491 1492 1493 1494 1495 1496 1497 1499 1499 1500 1502 1503 1504 1505 1506 1507 1509 1510 1511 1512 1514 1515 1516 1517 1518 1519 1520 1521 1522 1523 1523 1524 1524 1525 1525 1525
1497 1500 1497 1496 1495 1494 1493 1493 1492 1491 1491 1489 1489 1490 1491 1492 1492 1494 1495 1496 1497 1499 1499 1500 1501 1502 1503 1504 1505 1506 1508 1509 1511 1512 1513 1514 1515 1516 1517 1518 1519 1520 1521 1522 1522 1523 1523 1524 1524
1497 1496 1495 1495 1494 1493 1493 1492 1491 1490 1489 1488 1488 1488 1489 1490 1491 1492 1493 1494 1496 1496 1497 1499 1499 1500 1501 1502 1503 1504 1506 1507 1508 1510 1511 1512 1513 1514 1515 1516 1517 1517 1518 1520 1520 1521 1522 1522 1522
1496 1495 1494 1494 1493 1492 1491 1491 1491 1488 1487 1487 1487 1487 1488 1488 1489 1490 1492 1492 1493 1494 1495 1496 1497 1498 1499 1500 1501 1502 1504 1505 1506 1508 1509 1510 1511 1512 1513 1514 1515 1515 1516 1517 1518 1519 1519 1520 1520
1495 1494 1494 1493 1492 1491 1491 1490 1490 1485 1486 1485 1485 1485 1486 1487 1488 1489 1490 1491 1492 1493 1493 1494 1495 1496 1496 1497 1498 1500 1501 1503 1504 1505 1507 1508 1509 1510 1511 1511 1513 1513 1514 1515 1516 1517 1517 1518 1518
1494 1495 1494 1492 1491 1490 1491 1490 1487 1484 1485 1484 1483 1483 1484 1485 1486 1486 1487 1488 1489 1490 1491 1491 1492 1493 1494 1494 1496 1497 1499 1500 1501 1503 1504 1505 1506 1507 1508 1509 1510 1511 1512 1513 1514 1514 1515 1515 1516
1495 1497 1498 1492 1490 1489 1493 1490 1484 1483 1483 1482 1481 1482 1482 1483 1483 1484 1485 1486 1487 1487 1488 1489 1489 1490 1491 1492 1493 1495 1496 1497 1499 1500 1501 1502 1503 1504 1505 1506 1507 1508 1509 1510 1511 1511 1512 1512 1512
1499 1501 1498 1493 1489 1489 1491 1489 1483 1482 1482 1480 1480 1480 1479 1480 1480 1482 1482 1483 1484 1485 1485 1486 1487 1487 1488 1489 1491 1492 1493 1494 1496 1497 1498 1499 1500 1501 1502 1503 1504 1505 1506 1507 1508 1508 1509 1509 1509
1500 1500 1497 1494 1489 1489 1490 1486 1482 1481 1480 1478 1477 1477 1477 1476 1477 1479 1479 1480 1481 1482 1482 1483 1484 1485 1485 1486 1487 1489 1490 1491 1493 1494 1494 1496 1497 1498 1499 1500 1501 1501 1502 1503 1504 1505 1506 1506 1506
1495 1496 1496 1493 1489 1489 1488 1484 1480 1478 1478 1476 1475 1474 1474 1474 1475 1476 1477 1477 1478 1478 1479 1480 1481 1482 1482 1483 1484 1485 1486 1487 1489 1490 1491 1493 1494 1495 1495 1496 1497 1497 1498 1499 1501 1501 1502 1502 1502
1494 1496 1496 1492 1488 1488 1487 1483 1478 1476 1475 1474 1473 1472 1471 1472 1471 1471 1472 1472 1473 1474 1475 1476 1477 1478 1478 1479 1481 1481 1482 1483 1485 1486 1488 1489 1490 1491 1492 1493 1493 1494 1495 1496 1496 1497 1497 1498 1499
1494 1495 1494 1493 1490 1488 1490 1484 1478 1474 1473 1472 1471 1470 1469 1469 1468 1467 1468 1468 1469 1470 1471 1472 1473 1474 1475 1476 1477 1478 1479 1480 1481 1482 1484 1485 1486 1488 1488 1489 1490 1491 1491 1492 1492 1493 1493 1493 1494
1494 1491 1491 1491 1495 1496 1493 1494 1481 1476 1474 1472 1469 1467 1466 1466 1465 1464 1464 1464 1465 1466 1467 1468 1469 1470 1471 1472 1473 1473 1474 1475 1476 1478 1479 1481 1482 1484 1485 1486 1486 1487 1488 1489 1489 1489 1489 1489 1489
1492 1490 1491 1491 1494 1499 1495 1497 1484 1478 1475 1471 1468 1466 1464 1463 1462 1461 1461 1461 1462 1462 1464 1465 1465 1466 1467 1468 1469 1469 1471 1472 1473 1474 1475 1476 1478 1479 1480 1482 1482 1483 1484 1485 1485 1485 1485 1485 1485
1490 1492 1493 1497 1500 1502 1494 1497 1487 1480 1474 1470 1467 1464 1463 1462 1461 1460 1459 1459 1459 1460 1461 1461 1461 1462 1463 1464 1465 1466 1467 1468 1469 1470 1470 1472 1473 1474 1475 1477 1478 1479 1480 1481 1481 1481 1481 1481 1481
1493 1500 1506 1506 1510 1503 1492 1492 1485 1474 1471 1469 1467 1464 1462 1461 1460 1459 1457 1457 1456 1457 1457 1457 1458 1459 1460 1461 1461 1462 1463 1464 1465 1465 1466 1467 1468 1469 1470 1473 1474 1475 1476 1476 1477 1477 1477 1477 1476
1496 1499 1505 1506 1508 1501 1492 1489 1479 1472 1469 1467 1466 1464 1462 1460 1458 1457 1456 1455 1454 1454 1454 1454 1455 1455 1456 1457 1458 1459 1460 1461 1461 1462 1462 1463 1464 1465 1466 1468 1469 1471 1471 1472 1472 1472 1472 1472 1472
1496 1500 1499 1506 1508 1506 1496 1488 1477 1470 1468 1466 1465 1463 1461 1459 1457 1456 1454 1453 1453 1452 1452 1452 1452 1453 1453 1453 1454 1455 1456 1457 1457 1458 1459 1460 1461 1461 1462 1463 1465 1466 1467 1467 1467 1467 1467 1467 1467
1495 1497 1502 1505 1504 1500 1493 1488 1480 1472 1469 1467 1465 1463 1460 1458 1457 1455 1453 1452 1451 1450 1450 1450 1450 1450 1450 1451 1451 1452 1452 1453 1454 1455 1455 1456 1457 1457 1458 1459 1460 1461 1462 1463 1463 1463 1463 1463 1463
1497 1499 1500 1504 1504 1501 1498 1486 1473 1471 1469 1468 1466 1463 1461 1459 1457 1454 1452 1451 1449 1448 1448 1447 1447 1447 1447 1448 1448 1448 1448 1449 1450 1451 1451 1452 1453 1453 1454 1455 1456 1457 1458 1458 1459 1458 1459 1458 1458
1496 1497 1501 1503 1504 1503 1500 1488 1470 1470 1468 1467 1465 1463 1461 1459 1456 1453 1451 1449 1447 1446 1445 1445 1444 1444 1444 1445 1445 1445 1445 1445 1446 1446 1447 1448 1449 1450 1451 1451 1452 1453 1453 1454 1454 1454 1454 1454 1454